Вернуться в каталог

CZ-4 DEB

АктивенPO
NORAD 26175·DEBRIS·🇨🇳 China

Запущен Oct 14, 1999 с Taiyuan Satellite Launch Center

Loading…

Ближайшие Пролёты (ближайшие 24 часа)

TLE

СвежийSource: Space-Track

Эпоха: Sep 13, 2026, 12:52 UTC

1 26175U 99057BM  26256.53658072  .00000264  00000-0  19735-3 0  9998
2 26175  98.7271 102.6485 0330500 241.5291 115.2205 13.79423523331235

Отслеживайте CZ-4 DEB в реальном времени с AllMySat

Download on the App Store